Weather in Otrozhki

Russia / Volgograd Oblast     49°34′08″N   42°50′57″E
temp.,
°C
wind,
m/s
gust,
m/s
humid.,
%
clouds,
%
prec.,
mm/h
press.,
hPa
HPBL,
m
5 august, thu
thu500:00+20ne2259100 0.0 101624
03:00+18n226365 0.0 101715
06:00+19n2357100 0.0 101890
09:00+26ne3338100 0.0 1017900
12:00+30nne222564 0.0 10162528
15:00+32n43204 0.0 10153125
18:00+31n4221100 0.0 10142008
21:00+23ene493899 0.0 1015151
6 august, fri
fri600:00+21ese35437 0.0 101574
03:00+19e33455 0.0 101531
06:00+21ese38410 0.0 1015205
09:00+30ese56230 0.0 10141025
12:00+34ese65195 0.0 10132537
15:00+35ese651754 0.0 10112917
18:00+33ese651755 0.0 10112563
21:00+25e492635 0.0 1012120
7 august, sat
sat700:00+21e49355 0.0 1012133
03:00+20ese4133841 0.0 1012240
06:00+22ese5153399 0.0 1012377
09:00+30ese81018100 0.0 1012911
12:00+35ese771531 0.0 10112126
15:00+36se6614100 0.0 10102431
18:00+35e5715100 0.0 1009790
21:00+27e4102298 0.0 1010148
8 august, sun
sun800:00+24e41324100 0.0 1010210
03:00+23ese372760 0.0 1010108
06:00+24ese3427100 0.0 101197
09:00+31se5920100 0.0 1011693
12:00+33sse4518100 0.0 10111408
15:00+34nw7618100 0.0 1009709
18:00+32n8102299 0.0 1009556
21:00+29ne3727100 0.0 1009137
9 august, mon
mon900:00+30ne8142599 0.0 1008768
03:00+27ene6132690 0.0 1007386
06:00+26ne51032100 0.2 1007373
09:00+31ne6724100 0.4 10081124
12:00+35n552068 0.0 10072067
15:00+37n661996 0.0 10072993
18:00+36n7919100 0.0 10073395
21:00+30nnw714305 0.0 1009590